{"data":{"norad_id":57669,"epoch":"2026-05-24T21:44:22.670016Z","epoch_age_seconds":83463,"freshness":"FRESH","line1":"1 57669U 23124G   26144.90581794  .00000077  00000+0  14242-4 0  9995","line2":"2 57669  53.1600 212.7162 0001097  94.2397 265.8730 15.31696668155230","mean_motion":15.31696668,"eccentricity":0.0001097,"inclination_deg":53.16,"raan_deg":212.7162,"arg_perigee_deg":94.2397,"mean_anomaly_deg":265.873,"bstar":1.4242e-5,"rev_number":15523,"period_min":94.013392474129,"perigee_km":469.99860486629,"apogee_km":471.50125065825,"semimajor_km":6848.8869277623,"source":"CELESTRAK","updated_at":"2026-05-25T13:38:18.367840Z"}}